This is the latest recevied weather packets stored in our database for station/object CRYC. If no packets are shown the sender has not sent any weather packets the latest 10 day(s).
| Time | Temp. | Humidity | Pressure | Rain* | Wind** | Luminosity | Snow |
|---|---|---|---|---|---|---|---|
| 1777828060 | 14.44° C | - | - | 0 mm | 2.68 m/s, 13° | - | - |
| 1777827445 | 15° C | - | - | 0 mm | 1.79 m/s, 302° | - | - |
| 1777826838 | 15° C | - | - | 0 mm | 1.79 m/s, 347° | - | - |
| 1777826235 | 16.11° C | - | - | 0 mm | 3.58 m/s, 250° | - | - |
| 1777825630 | 15.56° C | - | - | 0 mm | 2.24 m/s, 316° | - | - |
| 1777825041 | 14.44° C | - | - | 0 mm | 2.24 m/s, 6° | - | - |
| 1777824423 | 15° C | - | - | 0 mm | 2.68 m/s, 338° | - | - |
| 1777823820 | 14.44° C | - | - | 0 mm | 2.24 m/s, 44° | - | - |
| 1777823211 | 13.89° C | - | - | 0 mm | 2.68 m/s, 308° | - | - |
| 1777822611 | 13.33° C | - | - | 0 mm | 3.13 m/s, 304° | - | - |
| 1777822005 | 13.33° C | - | - | 0 mm | 2.68 m/s, 309° | - | - |
| 1777821397 | 13.33° C | - | - | 0 mm | 2.68 m/s, 4° | - | - |
| 1777820789 | 14.44° C | - | - | 0 mm | 1.34 m/s, 333° | - | - |
| 1777820179 | 11.11° C | - | - | 0 mm | 3.13 m/s, 297° | - | - |
| 1777819574 | 13.33° C | - | - | 0 mm | 2.24 m/s, 316° | - | - |
| 1777818366 | 12.78° C | - | - | 0 mm | 3.13 m/s, 349° | - | - |
| 1777817763 | 11.11° C | - | - | 0 mm | 3.58 m/s, 357° | - | - |
| 1777817156 | 11.67° C | - | - | 0 mm | 2.24 m/s, 342° | - | - |
| 1777816548 | 11.67° C | - | - | 0 mm | 1.79 m/s, 291° | - | - |
| 1777815944 | 11.11° C | - | - | 0 mm | 2.24 m/s, 328° | - | - |
| 1777815339 | 10.56° C | - | - | 0 mm | 3.13 m/s, 20° | - | - |
| 1777814735 | 10.56° C | - | - | 0 mm | 3.58 m/s, 302° | - | - |
| 1777814133 | 10.56° C | - | - | 0 mm | 2.68 m/s, 14° | - | - |
| 1777813528 | 10° C | - | - | 0 mm | 3.13 m/s, 321° | - | - |
| 1777812924 | 9.44° C | - | - | 0 mm | 2.24 m/s, 1° | - | - |
* Rain latest hour (hover to see other rain measurements)
** Current wind speed in m/s (hover to see current wind gust speed)